Weather History for KMQY - June, 2012

Change the Weather History Date:

Friday, June 8, 2012

  Actual Average Record
Temperature  
Mean Temperature 73 °F -  
Max Temperature 92 °F 80 °F 100 °F (2011)
Min Temperature 54 °F 65 °F 54 °F (2012)
Cooling Degree Days 8    
Growing Degree Days 23 (Base 50)    
Moisture  
Dew Point 52 °F    
Average Humidity 53    
Maximum Humidity 97    
Minimum Humidity 21    
Precipitation  
Precipitation 0.00 in - - ()
Sea Level Pressure  
Sea Level Pressure 30.02 in    
Wind  
Wind Speed 2 mph (NE)    
Max Wind Speed 10 mph    
Max Gust Speed -    
Visibility 10 miles    
Events      
Averages and records for this station are not official NWS values.
T = Trace of Precipitation, MM = Missing Value Source: NWS Daily Summary

Daily Weather History Graph

Daily Weather History Graph

Search for Another Location

Airport or City:

Trip Planner

Search our weather history database for the weather conditions in past years. The results will help you decide how hot, cold, wet, or windy it might be!

Date:

Astronomy

Jun. 08, 2012 Rise Set
Actual Time 5:28 AM CDT 8:01 PM CDT
Civil Twilight 4:58 AM CDT 8:31 PM CDT
Nautical Twilight 4:21 AM CDT 9:09 PM CDT
Astronomical Twilight 3:40 AM CDT 9:50 PM CDT
Moon 11:32 PM CDT (6/8) 10:02 AM CDT (6/8)
Length of Visible Light 15h 32m
Length of Day
14h 32m
Waning Gibbous, 77% of the Moon is Illuminated
Jun 8
Waning Gibbous
Jun 11
Last Quarter
Jun 19
New
Jun 26
First Quarter
Jul 3
Full

Hourly Weather History & Observations

Time (CDT) Temp. Heat Index Dew Point Humidity Pressure Visibility Wind Dir Wind Speed Gust Speed Precip Events Conditions
12:56 AM 61.0 °F - 54.9 °F 80% 30.04 in 10.0 mi Calm Calm - N/A   Clear
1:56 AM 57.9 °F - 55.9 °F 93% 30.03 in 10.0 mi Calm Calm - N/A   Clear
2:56 AM 57.9 °F - 54.9 °F 90% 30.03 in 10.0 mi Calm Calm - N/A   Clear
3:56 AM 55.9 °F - 52.0 °F 87% 30.04 in 10.0 mi Calm Calm - N/A   Clear
4:56 AM 55.9 °F - 52.9 °F 89% 30.05 in 10.0 mi Calm Calm - N/A   Clear
5:56 AM 54.9 °F - 54.0 °F 97% 30.06 in 10.0 mi Calm Calm - N/A   Clear
6:56 AM 61.0 °F - 56.8 °F 86% 30.08 in 10.0 mi Calm Calm - N/A   Clear
7:56 AM 68.9 °F - 54.9 °F 61% 30.09 in 10.0 mi Calm Calm - N/A   Clear
8:56 AM 75.9 °F - 54.9 °F 48% 30.09 in 10.0 mi Calm Calm - N/A   Clear
9:56 AM 81.0 °F 80.7 °F 54.9 °F 41% 30.08 in 10.0 mi Calm Calm - N/A   Clear
10:56 AM 86.0 °F - 50.0 °F 29% 30.06 in 10.0 mi Variable 6.9 mph - N/A   Clear
11:56 AM 86.0 °F - 50.0 °F 29% 30.06 in 10.0 mi Calm Calm - N/A   Partly Cloudy
12:56 PM 90.9 °F - 47.8 °F 23% 30.03 in 10.0 mi NE 10.4 mph - N/A   Partly Cloudy
1:56 PM 91.9 °F - 47.8 °F 22% 30.01 in 10.0 mi North 6.9 mph - N/A   Clear
2:56 PM 92.8 °F - 46.9 °F 21% 29.99 in 10.0 mi East 8.1 mph - N/A   Clear
3:56 PM 91.9 °F - 48.9 °F 23% 29.97 in 8.0 mi SSE 8.1 mph - N/A   Clear
4:56 PM 91.9 °F - 47.8 °F 22% 29.96 in 10.0 mi Calm Calm - N/A   Clear
5:56 PM 90.0 °F - 47.8 °F 23% 29.95 in 10.0 mi North 6.9 mph - N/A   Clear
6:56 PM 86.0 °F - 50.0 °F 29% 29.95 in 10.0 mi NNE 8.1 mph - N/A   Clear
7:56 PM 81.0 °F - 50.0 °F 34% 29.96 in 10.0 mi NNE 6.9 mph - N/A   Clear
8:56 PM 72.9 °F - 52.0 °F 48% 29.97 in 10.0 mi Calm Calm - N/A   Clear
9:56 PM 70.0 °F - 52.9 °F 55% 29.98 in 10.0 mi Calm Calm - N/A   Clear
10:56 PM 68.9 °F - 54.0 °F 59% 29.99 in 10.0 mi Calm Calm - N/A   Clear
11:56 PM 63.9 °F - 55.9 °F 75% 29.99 in 10.0 mi Calm Calm - N/A   Clear